Location: Newark
(25.6108°S, 54.5803°W)
Time: 13:52:24
(UTC+00:00)

Explorer 11/Cluster Stage 4 - Visible Passes

Search period start: 30 October 2020 00:00
Search period end: 09 November 2020 00:00
Orbit: 467 x 1258 km, 28.8° (Epoch: 29 October)

Date Brightness Start Highest point End Pass type
(mag) Time Alt. Az. Time Alt. Az. Time Alt. Az.
30 Oct 8.5 06:10:48 17° E 06:10:48 17° E 06:11:56 10° E visible
30 Oct 6.9 07:52:59 20° WNW 07:55:38 36° NNW 08:00:38 10° NE visible
31 Oct 7.0 07:43:26 25° NW 07:44:51 29° NNW 07:49:21 10° NE visible
31 Oct 8.1 22:30:55 10° N 22:32:42 12° NNE 22:34:25 10° NE visible
01 Nov 7.3 07:34:01 23° NNW 07:34:05 23° NNW 07:37:59 10° NNE visible
01 Nov 8.0 22:18:43 10° NNW 22:21:55 16° NNE 22:24:47 10° ENE visible
02 Nov 8.1 00:05:38 10° NW 00:07:21 20° NW 00:07:21 20° NW visible
02 Nov 7.9 07:24:41 16° N 07:24:41 16° N 07:26:31 10° NNE visible
02 Nov 7.0 23:54:34 10° WNW 23:58:01 39° NW 23:58:01 39° NW visible
03 Nov 6.0 23:43:31 10° WNW 23:48:35 70° N 23:48:35 70° N visible
04 Nov 6.1 23:32:28 10° WNW 23:38:01 82° NNE 23:39:03 55° E visible
05 Nov 6.3 23:21:25 10° WNW 23:27:14 89° S 23:29:24 33° ESE visible
06 Nov 9.0 01:11:07 10° W 01:11:33 12° W 01:11:33 12° W visible
06 Nov 6.5 23:10:24 10° W 23:16:26 82° SSW 23:19:38 22° ESE visible
07 Nov 8.6 01:00:12 10° W 01:01:47 19° WSW 01:01:47 19° WSW visible
07 Nov 6.7 22:59:21 10° W 23:05:38 76° SSW 23:09:45 15° ESE visible
08 Nov 8.1 00:49:16 10° WSW 00:51:55 27° WSW 00:51:55 27° WSW visible
08 Nov 6.9 22:48:18 10° W 22:54:49 72° S 22:59:48 11° ESE visible
